Location: Lane
(33.5226°N, 79.8788°W)
Time: 19:29:32
(UTC+00:00)

Courier 1B Rocket - Pass Details

Date: 14 October 2022
Orbit: 920 x 1202 km, 28.3° (Epoch: 01 December)

Event Time Altitude Azimuth Distance (km) Brightness Sun altitude
Rises 19:04:51 0° 239° (WSW) 4,088 9.1 39.4°
Reaches altitude 10° 19:07:52 10° 233° (SW) 3,125 8.8 39.0°
Maximum altitude 19:15:09 43° 164° (SSE) 1,592 7.0 38.0°
Drops below altitude 10° 19:22:13 10° 96° (E) 3,034 7.4 37.0°
Sets 19:25:05 0° 89° (E) 3,958 7.8 36.6°
